This is the latest recevied weather packets stored in our database for station/object KC3ELT-10. If no packets are shown the sender has not sent any weather packets the latest 10 day(s).
| Time | Temp. | Humidity | Pressure | Rain* | Wind** | Luminosity | Snow |
|---|---|---|---|---|---|---|---|
| 1777685879 | 11.11° C | 67% | 1006.2 hPa | 0 mm | 0.45 m/s, 346° | - | - |
| 1777685579 | 11.11° C | 66% | 1006.2 hPa | 0 mm | 0.45 m/s, 342° | - | - |
| 1777685279 | 11.67° C | 65% | 1006.2 hPa | 0 mm | 0.45 m/s, 330° | - | - |
| 1777684979 | 11.67° C | 63% | 1006.2 hPa | 0 mm | 0.89 m/s, 346° | - | - |
| 1777684679 | 12.22° C | 62% | 1006.2 hPa | 0 mm | 1.79 m/s, 288° | - | - |
| 1777684379 | 12.22° C | 59% | 1006 hPa | 0 mm | 1.34 m/s, 345° | - | - |
| 1777684079 | 12.78° C | 57% | 1006 hPa | 0 mm | 1.79 m/s, 352° | - | - |
| 1777683779 | 12.78° C | 55% | 1006 hPa | 0 mm | 1.79 m/s, 297° | - | - |
| 1777683479 | 12.78° C | 55% | 1005.9 hPa | 0 mm | 0.45 m/s, 281° | - | - |
| 1777683179 | 12.78° C | 54% | 1005.9 hPa | 0 mm | 0 m/s | - | - |
| 1777682879 | 12.78° C | 54% | 1005.9 hPa | 0 mm | 0 m/s | - | - |
| 1777682579 | 12.78° C | 53% | 1005.5 hPa | 0 mm | 0.45 m/s, 283° | - | - |
| 1777682279 | 12.78° C | 53% | 1005.5 hPa | 0 mm | 0 m/s | - | - |
| 1777681979 | 12.78° C | 53% | 1005.5 hPa | 0 mm | 0.45 m/s, 243° | - | - |
| 1777681679 | 12.78° C | 52% | 1005.5 hPa | 0 mm | 0.45 m/s, 193° | - | - |
| 1777681379 | 12.78° C | 52% | 1005.5 hPa | 0 mm | 0.45 m/s, 243° | - | - |
| 1777681079 | 12.78° C | 52% | 1005.5 hPa | 0 mm | 0.45 m/s, 259° | - | - |
| 1777680779 | 12.78° C | 51% | 1005.6 hPa | 0 mm | 0.45 m/s, 191° | - | - |
| 1777680479 | 12.78° C | 51% | 1005.6 hPa | 0 mm | 0.89 m/s, 203° | - | - |
| 1777680179 | 12.78° C | 51% | 1005.6 hPa | 0 mm | 1.34 m/s, 193° | - | - |
| 1777679879 | 12.78° C | 50% | 1005.3 hPa | 0 mm | 0.45 m/s, 226° | - | - |
| 1777679579 | 12.78° C | 50% | 1005.3 hPa | 0 mm | 0 m/s | - | - |
| 1777679279 | 12.78° C | 50% | 1005.3 hPa | 0 mm | 0 m/s | - | - |
| 1777678979 | 13.33° C | 51% | 1005.1 hPa | 0 mm | 0 m/s | - | - |
| 1777678679 | 13.33° C | 49% | 1005.1 hPa | 0 mm | 0.89 m/s, 214° | - | - |
* Rain latest hour (hover to see other rain measurements)
** Current wind speed in m/s (hover to see current wind gust speed)